Wetterdaten: Montag, 06.06.2016
Datum Zeit Temp. A. Mod.Schuppen Aussentemp2 Feuchte A. Luftdruck Regen Wind Richtung Richtung Sonnenschein Helligkeit Solar
06.06.2016 00:04 21,2 C 19,8 C 21,8 C 68 % 1017,7 hPa 0,0 l/m 5,1 km/h (1 Bft) N 355 0 min 0 lux 0 W/m
06.06.2016 00:10 21,2 C 19,4 C 21,7 C 69 % 1017,7 hPa 0,0 l/m 10,0 km/h (2 Bft) N22.5 350 0 min 0 lux 0 W/m
06.06.2016 00:15 21,3 C 19,4 C 21,8 C 68 % 1017,7 hPa 0,0 l/m 11,8 km/h (2 Bft) N-NO45 15 0 min 0 lux 0 W/m
06.06.2016 00:19 21,4 C 19,4 C 21,7 C 67 % 1017,7 hPa 0,0 l/m 9,7 km/h (2 Bft) N-NO22.5 15 0 min 0 lux 0 W/m
06.06.2016 00:24 21,6 C 19,6 C 21,7 C 66 % 1017,7 hPa 0,0 l/m 10,2 km/h (2 Bft) N-NO22.5 25 0 min 0 lux 0 W/m
06.06.2016 00:30 21,6 C 19,3 C 21,7 C 66 % 1017,7 hPa 0,0 l/m 8,8 km/h (2 Bft) N-NO22.5 15 0 min 0 lux 0 W/m
06.06.2016 00:35 21,6 C 19,2 C 21,7 C 66 % 1017,7 hPa 0,0 l/m 5,6 km/h (2 Bft) N 10 0 min 0 lux 0 W/m
06.06.2016 00:40 21,4 C 19,1 C 21,6 C 67 % 1017,7 hPa 0,0 l/m 6,8 km/h (2 Bft) N 10 0 min 0 lux 0 W/m
06.06.2016 00:44 21,3 C 18,9 C 21,5 C 67 % 1017,7 hPa 0,0 l/m 6,5 km/h (2 Bft) N-NO 15 0 min 0 lux 0 W/m
06.06.2016 00:49 21,2 C 18,8 C 21,5 C 67 % 1017,7 hPa 0,0 l/m 8,2 km/h (2 Bft) N-NO22.5 20 0 min 0 lux 0 W/m
06.06.2016 00:55 21,1 C 18,8 C 21,5 C 68 % 1017,7 hPa 0,0 l/m 7,4 km/h (2 Bft) N22.5 10 0 min 0 lux 0 W/m
06.06.2016 01:00 21,0 C 18,7 C 21,5 C 68 % 1017,7 hPa 0,0 l/m 7,0 km/h (2 Bft) N 10 0 min 0 lux 0 W/m
06.06.2016 01:04 20,8 C 18,6 C 21,5 C 69 % 1017,7 hPa 0,0 l/m 5,7 km/h (2 Bft) N-NO 20 0 min 0 lux 0 W/m
06.06.2016 01:09 20,6 C 18,4 C 21,4 C 70 % 1017,7 hPa 0,0 l/m 8,1 km/h (2 Bft) N-NO 15 0 min 0 lux 0 W/m
06.06.2016 01:15 20,4 C 18,3 C 21,4 C 71 % 1017,7 hPa 0,0 l/m 6,3 km/h (2 Bft) N-NO 25 0 min 0 lux 0 W/m
06.06.2016 01:20 20,3 C 18,3 C 21,4 C 72 % 1017,7 hPa 0,0 l/m 11,8 km/h (2 Bft) N-NO22.5 15 0 min 0 lux 0 W/m
06.06.2016 01:25 20,2 C 18,2 C 21,4 C 72 % 1017,7 hPa 0,0 l/m 11,0 km/h (2 Bft) N22.5 10 0 min 0 lux 0 W/m
06.06.2016 01:30 20,0 C 18,1 C 21,3 C 71 % 1017,7 hPa 0,0 l/m 11,5 km/h (2 Bft) N-NO22.5 25 0 min 0 lux 0 W/m
06.06.2016 01:34 20,0 C 18,2 C 21,4 C 71 % 1017,7 hPa 0,0 l/m 10,3 km/h (2 Bft) N-NO22.5 15 0 min 0 lux 0 W/m
06.06.2016 01:39 20,0 C 18,2 C 21,4 C 71 % 1017,7 hPa 0,0 l/m 12,3 km/h (2 Bft) N-NO22.5 15 0 min 0 lux 0 W/m
06.06.2016 01:45 19,8 C 18,0 C 21,3 C 71 % 1017,7 hPa 0,0 l/m 11,9 km/h (2 Bft) N-NO22.5 20 0 min 0 lux 0 W/m
06.06.2016 01:50 19,8 C 17,8 C 21,1 C 71 % 1017,7 hPa 0,0 l/m 13,0 km/h (3 Bft) N-NO45 30 0 min 0 lux 0 W/m
06.06.2016 01:55 19,8 C 17,7 C 21,2 C 71 % 1017,7 hPa 0,0 l/m 12,4 km/h (2 Bft) N-NO22.5 30 0 min 0 lux 0 W/m
06.06.2016 01:59 19,8 C 17,6 C 21,2 C 71 % 1017,7 hPa 0,0 l/m 11,4 km/h (2 Bft) N-NO22.5 30 0 min 0 lux 0 W/m
06.06.2016 02:05 19,8 C 17,5 C 21,1 C 71 % 1017,7 hPa 0,0 l/m 11,4 km/h (2 Bft) N-NO22.5 30 0 min 0 lux 0 W/m
06.06.2016 02:10 19,7 C 17,3 C 21,1 C 71 % 1017,7 hPa 0,0 l/m 10,6 km/h (2 Bft) N-NO22.5 30 0 min 0 lux 0 W/m
06.06.2016 02:15 19,6 C 17,4 C 21,1 C 72 % 1017,7 hPa 0,0 l/m 9,0 km/h (2 Bft) N-NO22.5 20 0 min 0 lux 0 W/m
06.06.2016 02:20 19,6 C 17,4 C 21,1 C 72 % 1017,7 hPa 0,0 l/m 7,2 km/h (2 Bft) N22.5 10 0 min 0 lux 0 W/m
06.06.2016 02:24 19,3 C 17,3 C 21,2 C 73 % 1017,7 hPa 0,0 l/m 7,6 km/h (2 Bft) N 5 0 min 0 lux 0 W/m
06.06.2016 02:29 19,2 C 17,3 C 21,1 C 73 % 1017,7 hPa 0,0 l/m 8,8 km/h (2 Bft) N-NO22.5 25 0 min 0 lux 0 W/m
06.06.2016 02:35 19,1 C 17,2 C 21,0 C 73 % 1017,7 hPa 0,0 l/m 9,2 km/h (2 Bft) N-NO22.5 20 0 min 0 lux 0 W/m
06.06.2016 02:40 19,1 C 17,1 C 20,9 C 74 % 1017,7 hPa 0,0 l/m 9,4 km/h (2 Bft) N-NO22.5 25 0 min 0 lux 0 W/m
06.06.2016 02:45 19,1 C 17,0 C 21,0 C 74 % 1017,7 hPa 0,0 l/m 8,5 km/h (2 Bft) N-NO22.5 30 0 min 0 lux 0 W/m
06.06.2016 02:49 19,0 C 16,9 C 21,0 C 74 % 1017,7 hPa 0,0 l/m 6,7 km/h (2 Bft) N-NO 15 0 min 0 lux 0 W/m
06.06.2016 02:54 18,8 C 16,9 C 21,0 C 74 % 1017,7 hPa 0,0 l/m 7,0 km/h (2 Bft) N-NO 25 0 min 0 lux 0 W/m
06.06.2016 03:00 18,8 C 16,9 C 21,0 C 75 % 1017,7 hPa 0,0 l/m 8,8 km/h (2 Bft) N22.5 5 0 min 0 lux 0 W/m
06.06.2016 03:05 18,6 C 16,8 C 21,0 C 75 % 1017,7 hPa 0,0 l/m 7,4 km/h (2 Bft) N22.5 10 0 min 0 lux 0 W/m
06.06.2016 03:09 18,4 C 16,8 C 21,1 C 75 % 1017,7 hPa 0,0 l/m 7,9 km/h (2 Bft) N-NO22.5 15 0 min 0 lux 0 W/m
06.06.2016 03:14 18,0 C 16,2 C 21,1 C 76 % 1017,7 hPa 0,0 l/m 0,6 km/h (0 Bft) N-NO 25 0 min 0 lux 0 W/m
06.06.2016 03:20 17,8 C 16,0 C 21,1 C 77 % 1017,7 hPa 0,0 l/m 0,0 km/h (0 Bft) N-NO 15 0 min 0 lux 0 W/m
06.06.2016 03:25 17,5 C 15,7 C 21,1 C 77 % 1017,7 hPa 0,0 l/m 0,0 km/h (0 Bft) N-NO 15 0 min 0 lux 0 W/m
06.06.2016 03:30 17,4 C 15,8 C 21,0 C 78 % 1017,7 hPa 0,0 l/m 3,9 km/h (1 Bft) N 360 0 min 0 lux 0 W/m
06.06.2016 03:35 17,4 C 15,8 C 21,0 C 78 % 1017,7 hPa 0,0 l/m 3,6 km/h (1 Bft) N 360 0 min 0 lux 0 W/m
06.06.2016 03:39 17,3 C 15,9 C 21,0 C 79 % 1017,7 hPa 0,0 l/m 0,9 km/h (0 Bft) N 360 0 min 0 lux 0 W/m
06.06.2016 03:44 17,2 C 15,9 C 21,0 C 79 % 1017,7 hPa 0,0 l/m 0,4 km/h (0 Bft) N 360 0 min 0 lux 0 W/m
06.06.2016 03:50 17,2 C 15,9 C 20,9 C 79 % 1017,7 hPa 0,0 l/m 0,3 km/h (0 Bft) N 360 0 min 0 lux 0 W/m
06.06.2016 03:55 17,3 C 15,9 C 20,9 C 80 % 1017,7 hPa 0,0 l/m 0,0 km/h (0 Bft) N 360 0 min 0 lux 0 W/m
06.06.2016 04:00 17,4 C 16,0 C 20,8 C 80 % 1017,7 hPa 0,0 l/m 0,6 km/h (0 Bft) N 360 0 min 0 lux 0 W/m
06.06.2016 04:04 17,3 C 15,9 C 20,8 C 80 % 1017,7 hPa 0,0 l/m 4,5 km/h (1 Bft) N 360 0 min 0 lux 0 W/m
06.06.2016 04:10 17,3 C 15,9 C 20,7 C 80 % 1017,7 hPa 0,0 l/m 3,9 km/h (1 Bft) N 360 0 min 0 lux 0 W/m
06.06.2016 04:15 17,2 C 15,9 C 20,7 C 80 % 1017,7 hPa 0,0 l/m 4,8 km/h (1 Bft) N 360 0 min 0 lux 0 W/m
06.06.2016 04:20 17,1 C 15,9 C 20,7 C 81 % 1017,7 hPa 0,0 l/m 6,5 km/h (2 Bft) N 360 0 min 0 lux 0 W/m
06.06.2016 04:24 17,1 C 15,8 C 20,7 C 81 % 1017,7 hPa 0,0 l/m 6,7 km/h (2 Bft) N 360 0 min 0 lux 0 W/m
06.06.2016 04:29 17,0 C 15,8 C 20,7 C 81 % 1017,7 hPa 0,0 l/m 3,0 km/h (1 Bft) N 355 0 min 0 lux 0 W/m
06.06.2016 04:34 16,9 C 15,7 C 20,7 C 81 % 1017,7 hPa 0,0 l/m 1,0 km/h (0 Bft) N 355 0 min 0 lux 0 W/m
06.06.2016 04:40 16,8 C 15,6 C 20,6 C 81 % 1017,7 hPa 0,0 l/m 5,6 km/h (2 Bft) N 360 0 min 0 lux 0 W/m
06.06.2016 04:45 16,7 C 15,6 C 20,6 C 81 % 1017,7 hPa 0,0 l/m 4,5 km/h (1 Bft) N45 355 0 min 0 lux 0 W/m
06.06.2016 04:50 16,7 C 15,6 C 20,6 C 81 % 1017,7 hPa 0,0 l/m 4,8 km/h (1 Bft) N 360 0 min 0 lux 0 W/m
06.06.2016 04:54 16,6 C 15,6 C 20,6 C 82 % 1017,7 hPa 0,0 l/m 3,9 km/h (1 Bft) N 355 0 min 26 lux 0 W/m
06.06.2016 04:59 16,5 C 15,4 C 20,6 C 82 % 1017,7 hPa 0,0 l/m 0,0 km/h (0 Bft) N 355 0 min 49 lux 0 W/m
06.06.2016 05:05 16,5 C 15,4 C 20,5 C 82 % 1017,7 hPa 0,0 l/m 0,1 km/h (0 Bft) N 355 0 min 88 lux 0 W/m
06.06.2016 05:10 16,4 C 15,5 C 20,5 C 82 % 1017,7 hPa 0,0 l/m 4,2 km/h (1 Bft) N 355 0 min 148 lux 0 W/m
06.06.2016 05:14 16,5 C 15,6 C 20,5 C 82 % 1017,7 hPa 0,0 l/m 5,4 km/h (2 Bft) N 355 0 min 235 lux 0 W/m
06.06.2016 05:19 16,4 C 15,5 C 20,5 C 83 % 1017,7 hPa 0,0 l/m 8,5 km/h (2 Bft) N22.5 5 0 min 353 lux 0 W/m
06.06.2016 05:25 16,3 C 15,6 C 20,4 C 83 % 1017,7 hPa 0,0 l/m 6,6 km/h (2 Bft) N22.5 5 0 min 511 lux 0 W/m
06.06.2016 05:30 16,3 C 15,6 C 20,4 C 83 % 1017,7 hPa 0,0 l/m 0,6 km/h (0 Bft) N 10 0 min 708 lux 5 W/m
06.06.2016 05:35 16,3 C 15,6 C 20,4 C 83 % 1017,7 hPa 0,0 l/m 4,8 km/h (1 Bft) N 5 0 min 948 lux 6 W/m
06.06.2016 05:40 16,2 C 15,5 C 20,4 C 83 % 1017,7 hPa 0,0 l/m 4,0 km/h (1 Bft) N 360 0 min 1,22 klux 8 W/m
06.06.2016 05:44 16,2 C 15,6 C 20,4 C 83 % 1017,7 hPa 0,0 l/m 5,0 km/h (1 Bft) N 360 0 min 1,22 klux 8 W/m
06.06.2016 05:49 16,2 C 15,5 C 20,4 C 83 % 1017,7 hPa 0,0 l/m 0,0 km/h (0 Bft) N 360 0 min 1,88 klux 13 W/m
06.06.2016 05:55 16,1 C 15,6 C 20,4 C 83 % 1017,7 hPa 0,0 l/m 0,9 km/h (0 Bft) N 360 0 min 1,88 klux 13 W/m
06.06.2016 06:00 16,2 C 15,7 C 20,4 C 83 % 1017,7 hPa 0,0 l/m 0,8 km/h (0 Bft) N 5 0 min 2,46 klux 17 W/m
06.06.2016 06:04 16,1 C 15,8 C 20,4 C 83 % 1017,7 hPa 0,0 l/m 4,5 km/h (1 Bft) N 5 0 min 2,95 klux 20 W/m
06.06.2016 06:09 16,2 C 16,0 C 20,4 C 83 % 1017,7 hPa 0,0 l/m 6,0 km/h (2 Bft) N 5 0 min 3,41 klux 23 W/m
06.06.2016 06:15 16,2 C 16,0 C 20,4 C 83 % 1017,7 hPa 0,0 l/m 0,9 km/h (0 Bft) N 5 0 min 4,09 klux 28 W/m
06.06.2016 06:20 16,1 C 16,1 C 20,3 C 84 % 1017,7 hPa 0,0 l/m 4,6 km/h (1 Bft) N22.5 5 0 min 4,57 klux 31 W/m
06.06.2016 06:25 16,2 C 16,2 C 20,3 C 84 % 1017,7 hPa 0,0 l/m 5,6 km/h (2 Bft) N 355 0 min 5,06 klux 35 W/m
06.06.2016 06:29 16,3 C 16,4 C 20,3 C 84 % 1017,7 hPa 0,0 l/m 5,6 km/h (2 Bft) N 355 0 min 5,61 klux 38 W/m
06.06.2016 06:34 16,3 C 16,6 C 20,3 C 84 % 1017,7 hPa 0,0 l/m 6,8 km/h (2 Bft) N 360 0 min 5,61 klux 38 W/m
06.06.2016 06:40 16,4 C 16,8 C 20,2 C 84 % 1017,7 hPa 0,0 l/m 6,8 km/h (2 Bft) N 5 0 min 6,12 klux 42 W/m
06.06.2016 06:45 16,4 C 16,9 C 20,2 C 84 % 1017,7 hPa 0,0 l/m 7,1 km/h (2 Bft) N 5 0 min 6,57 klux 45 W/m
06.06.2016 06:50 16,4 C 17,3 C 20,2 C 84 % 1018,7 hPa 0,0 l/m 7,0 km/h (2 Bft) N 5 0 min 7,45 klux 51 W/m
06.06.2016 06:54 16,5 C 17,4 C 20,2 C 83 % 1018,7 hPa 0,0 l/m 7,0 km/h (2 Bft) N 5 0 min 7,99 klux 55 W/m
06.06.2016 06:59 16,7 C 17,7 C 20,2 C 83 % 1018,7 hPa 0,0 l/m 2,5 km/h (1 Bft) N-NO22.5 30 0 min 8,80 klux 60 W/m
06.06.2016 07:05 16,8 C 17,9 C 20,2 C 83 % 1018,7 hPa 0,0 l/m 6,1 km/h (2 Bft) N-NO22.5 25 0 min 8,80 klux 60 W/m
06.06.2016 07:10 16,9 C 18,0 C 20,2 C 83 % 1018,7 hPa 0,0 l/m 9,1 km/h (2 Bft) N22.5 10 0 min 8,80 klux 60 W/m
06.06.2016 07:14 17,2 C 18,2 C 20,2 C 82 % 1018,7 hPa 0,0 l/m 9,3 km/h (2 Bft) N-NO67.5 15 0 min 18,6 klux 127 W/m
06.06.2016 07:19 17,3 C 18,3 C 20,2 C 82 % 1018,7 hPa 0,0 l/m 13,6 km/h (3 Bft) N-NO22.5 15 0 min 19,5 klux 133 W/m
06.06.2016 07:24 17,4 C 18,7 C 20,2 C 81 % 1018,7 hPa 0,0 l/m 10,8 km/h (2 Bft) N-NO22.5 25 0 min 20,4 klux 140 W/m
06.06.2016 07:30 17,6 C 18,7 C 20,2 C 81 % 1018,7 hPa 0,0 l/m 9,8 km/h (2 Bft) N67.5 355 0 min 22,0 klux 150 W/m
06.06.2016 07:35 17,8 C 19,5 C 20,2 C 80 % 1018,7 hPa 0,0 l/m 10,3 km/h (2 Bft) N-NO22.5 20 0 min 22,0 klux 150 W/m
06.06.2016 07:40 17,9 C 20,2 C 20,3 C 80 % 1018,7 hPa 0,0 l/m 4,5 km/h (1 Bft) N-NO 15 0 min 24,0 klux 164 W/m
06.06.2016 07:44 18,0 C 20,7 C 20,3 C 79 % 1018,7 hPa 0,0 l/m 10,1 km/h (2 Bft) N22.5 360 0 min 25,7 klux 176 W/m
06.06.2016 07:49 18,1 C 21,8 C 20,3 C 79 % 1018,7 hPa 0,0 l/m 9,4 km/h (2 Bft) N22.5 10 0 min 26,9 klux 184 W/m
06.06.2016 07:55 18,2 C 22,7 C 20,3 C 79 % 1018,7 hPa 0,0 l/m 9,0 km/h (2 Bft) N22.5 5 6 min 28,7 klux 196 W/m
06.06.2016 08:00 18,5 C 23,2 C 20,3 C 78 % 1018,7 hPa 0,0 l/m 0,6 km/h (0 Bft) N 355 0 min 28,7 klux 196 W/m
06.06.2016 08:04 18,6 C 23,8 C 20,3 C 77 % 1018,7 hPa 0,0 l/m 7,8 km/h (2 Bft) N22.5 5 4 min 31,7 klux 217 W/m
06.06.2016 08:09 18,6 C 24,3 C 20,3 C 77 % 1018,7 hPa 0,0 l/m 10,0 km/h (2 Bft) N22.5 360 5 min 33,3 klux 228 W/m
06.06.2016 08:15 18,7 C 25,2 C 20,3 C 77 % 1018,7 hPa 0,0 l/m 12,8 km/h (3 Bft) N22.5 5 6 min 33,9 klux 232 W/m
06.06.2016 08:20 18,7 C 25,4 C 20,3 C 76 % 1018,7 hPa 0,0 l/m 10,3 km/h (2 Bft) N22.5 10 5 min 33,9 klux 232 W/m
06.06.2016 08:25 18,9 C 26,2 C 20,4 C 76 % 1018,7 hPa 0,0 l/m 11,8 km/h (2 Bft) N45 10 5 min 35,7 klux 244 W/m
06.06.2016 08:29 19,0 C 27,5 C 20,4 C 76 % 1018,7 hPa 0,0 l/m 6,7 km/h (2 Bft) N 5 4 min 37,0 klux 253 W/m
06.06.2016 08:34 19,4 C 28,1 C 20,4 C 76 % 1018,7 hPa 0,0 l/m 10,8 km/h (2 Bft) N-NO 30 5 min 39,4 klux 269 W/m
06.06.2016 08:40 19,5 C 28,5 C 20,4 C 74 % 1018,7 hPa 0,0 l/m 10,5 km/h (2 Bft) N-NO22.5 25 6 min 40,3 klux 276 W/m
06.06.2016 08:45 19,6 C 28,7 C 20,4 C 74 % 1018,7 hPa 0,0 l/m 8,4 km/h (2 Bft) NO22.5 35 5 min 41,6 klux 285 W/m
06.06.2016 08:50 19,9 C 29,3 C 20,3 C 74 % 1018,7 hPa 0,0 l/m 7,3 km/h (2 Bft) N22.5 5 5 min 42,9 klux 293 W/m
06.06.2016 08:55 19,9 C 30,4 C 20,5 C 74 % 1018,7 hPa 0,0 l/m 6,5 km/h (2 Bft) N-NO22.5 25 5 min 44,7 klux 306 W/m
06.06.2016 08:59 20,0 C 30,4 C 20,4 C 73 % 1018,7 hPa 0,0 l/m 11,5 km/h (2 Bft) N22.5 360 4 min 46,0 klux 315 W/m
06.06.2016 09:05 20,0 C 30,7 C 20,3 C 73 % 1018,7 hPa 0,0 l/m 6,5 km/h (2 Bft) N 350 6 min 46,0 klux 315 W/m
06.06.2016 09:10 20,2 C 31,4 C 20,5 C 73 % 1018,7 hPa 0,0 l/m 10,0 km/h (2 Bft) N-NO67.5 15 5 min 46,0 klux 315 W/m
06.06.2016 09:15 20,4 C 32,1 C 20,5 C 72 % 1018,7 hPa 0,0 l/m 12,0 km/h (2 Bft) N-NO22.5 20 5 min 49,1 klux 336 W/m
06.06.2016 09:19 20,6 C 33,3 C 20,5 C 72 % 1018,7 hPa 0,0 l/m 5,6 km/h (2 Bft) N22.5 355 4 min 50,7 klux 347 W/m
06.06.2016 09:24 20,8 C 33,7 C 20,5 C 71 % 1018,7 hPa 0,0 l/m 7,8 km/h (2 Bft) NO 40 5 min 52,8 klux 361 W/m
06.06.2016 09:30 20,9 C 34,4 C 20,6 C 71 % 1018,7 hPa 0,0 l/m 4,7 km/h (1 Bft) N-NO45 20 6 min 54,1 klux 370 W/m
06.06.2016 09:35 20,9 C 34,2 C 20,7 C 70 % 1018,7 hPa 0,0 l/m 9,4 km/h (2 Bft) N67.5 355 5 min 55,8 klux 382 W/m
06.06.2016 09:40 20,9 C 33,6 C 20,7 C 70 % 1018,7 hPa 0,0 l/m 3,2 km/h (1 Bft) N-NW 345 5 min 57,3 klux 392 W/m
06.06.2016 09:44 21,0 C 34,1 C 20,7 C 70 % 1018,7 hPa 0,0 l/m 10,6 km/h (2 Bft) N-NW 340 4 min 57,7 klux 395 W/m
06.06.2016 09:49 21,1 C 35,1 C 20,8 C 70 % 1018,7 hPa 0,0 l/m 9,0 km/h (2 Bft) N22.5 360 5 min 59,5 klux 407 W/m
06.06.2016 09:55 21,3 C 35,8 C 20,9 C 70 % 1018,7 hPa 0,0 l/m 6,3 km/h (2 Bft) N45 360 6 min 59,5 klux 407 W/m
06.06.2016 10:00 21,4 C 36,4 C 20,9 C 69 % 1018,7 hPa 0,0 l/m 8,1 km/h (2 Bft) N22.5 360 5 min 59,5 klux 407 W/m
06.06.2016 10:04 21,8 C 36,9 C 21,0 C 69 % 1018,7 hPa 0,0 l/m 1,3 km/h (1 Bft) N 350 4 min 62,6 klux 428 W/m
06.06.2016 10:09 21,9 C 37,6 C 21,0 C 68 % 1018,7 hPa 0,0 l/m 8,2 km/h (2 Bft) N-NO22.5 15 5 min 63,8 klux 436 W/m
06.06.2016 10:15 22,0 C 37,6 C 21,1 C 68 % 1018,6 hPa 0,0 l/m 5,4 km/h (2 Bft) N22.5 360 6 min 64,5 klux 441 W/m
06.06.2016 10:20 22,0 C 37,6 C 21,2 C 67 % 1018,6 hPa 0,0 l/m 14,6 km/h (3 Bft) N22.5 10 5 min 64,5 klux 441 W/m
06.06.2016 10:25 22,2 C 37,8 C 21,2 C 66 % 1018,6 hPa 0,0 l/m 16,0 km/h (3 Bft) N-NO45 15 5 min 66,9 klux 458 W/m
06.06.2016 10:29 22,4 C 38,0 C 21,2 C 66 % 1018,6 hPa 0,0 l/m 15,6 km/h (3 Bft) N-NO22.5 25 4 min 67,4 klux 461 W/m
06.06.2016 10:34 22,5 C 39,3 C 21,3 C 66 % 1018,6 hPa 0,0 l/m 12,8 km/h (3 Bft) N45 5 5 min 69,5 klux 475 W/m
06.06.2016 10:40 22,5 C 39,7 C 21,5 C 67 % 1018,6 hPa 0,0 l/m 11,2 km/h (2 Bft) N22.5 360 6 min 69,7 klux 477 W/m
06.06.2016 10:45 22,6 C 40,1 C 21,5 C 65 % 1018,6 hPa 0,0 l/m 13,2 km/h (3 Bft) N45 360 5 min 69,6 klux 476 W/m
06.06.2016 10:50 22,7 C 39,7 C 21,6 C 66 % 1018,6 hPa 0,0 l/m 11,6 km/h (2 Bft) N-NO45 15 5 min 71,3 klux 488 W/m
06.06.2016 10:55 22,8 C 40,3 C 21,6 C 66 % 1018,6 hPa 0,0 l/m 7,9 km/h (2 Bft) N45 5 5 min 72,0 klux 492 W/m
06.06.2016 10:59 23,1 C 41,3 C 21,6 C 66 % 1018,6 hPa 0,0 l/m 9,5 km/h (2 Bft) N-NO22.5 25 4 min 73,0 klux 499 W/m
06.06.2016 11:05 23,3 C 41,1 C 21,8 C 64 % 1018,6 hPa 0,0 l/m 11,2 km/h (2 Bft) N45 10 6 min 73,9 klux 505 W/m
06.06.2016 11:10 23,6 C 42,4 C 21,8 C 63 % 1018,6 hPa 0,0 l/m 11,5 km/h (2 Bft) N-NO22.5 30 5 min 75,0 klux 513 W/m
06.06.2016 11:15 23,8 C 42,7 C 21,7 C 64 % 1018,6 hPa 0,0 l/m 10,8 km/h (2 Bft) N-NO22.5 20 5 min 77,0 klux 527 W/m
06.06.2016 11:19 23,9 C 42,8 C 21,8 C 62 % 1018,6 hPa 0,0 l/m 13,7 km/h (3 Bft) N-NW22.5 345 4 min 74,7 klux 511 W/m
06.06.2016 11:24 24,1 C 43,9 C 21,9 C 62 % 1018,6 hPa 0,0 l/m 13,7 km/h (3 Bft) N-NW22.5 345 5 min 79,2 klux 542 W/m
06.06.2016 11:30 24,2 C 43,1 C 21,9 C 61 % 1018,6 hPa 0,0 l/m 15,3 km/h (3 Bft) N-NO45 20 6 min 78,4 klux 536 W/m
06.06.2016 11:35 24,3 C 44,0 C 22,1 C 62 % 1018,6 hPa 0,0 l/m 11,6 km/h (2 Bft) N22.5 360 5 min 81,0 klux 554 W/m
06.06.2016 11:40 24,3 C 43,9 C 22,1 C 61 % 1018,6 hPa 0,0 l/m 12,1 km/h (2 Bft) N22.5 360 5 min 82,1 klux 562 W/m
06.06.2016 11:44 24,4 C 43,7 C 22,0 C 62 % 1018,6 hPa 0,0 l/m 11,9 km/h (2 Bft) N67.5 360 4 min 82,0 klux 561 W/m
06.06.2016 11:49 24,7 C 44,3 C 22,2 C 62 % 1018,6 hPa 0,0 l/m 13,2 km/h (3 Bft) N-NO22.5 15 5 min 82,0 klux 561 W/m
06.06.2016 11:55 25,0 C 45,3 C 22,3 C 60 % 1018,6 hPa 0,0 l/m 11,9 km/h (2 Bft) N45 5 6 min 82,0 klux 561 W/m
06.06.2016 12:00 25,0 C 45,1 C 22,3 C 62 % 1018,6 hPa 0,0 l/m 13,1 km/h (3 Bft) N-NW22.5 335 5 min 82,8 klux 566 W/m
06.06.2016 12:04 25,2 C 46,5 C 22,2 C 61 % 1018,6 hPa 0,0 l/m 9,8 km/h (2 Bft) N-NO22.5 25 4 min 84,2 klux 576 W/m
06.06.2016 12:10 25,5 C 46,2 C 22,4 C 60 % 1018,6 hPa 0,0 l/m 12,7 km/h (3 Bft) N45 10 6 min 84,4 klux 577 W/m
06.06.2016 12:15 25,1 C 44,3 C 22,5 C 62 % 1018,6 hPa 0,0 l/m 17,1 km/h (3 Bft) N-NW45 340 5 min 86,6 klux 592 W/m
06.06.2016 12:20 25,1 C 46,3 C 22,4 C 62 % 1018,6 hPa 0,0 l/m 10,4 km/h (2 Bft) NW45 325 5 min 87,0 klux 595 W/m
06.06.2016 12:24 25,4 C 46,5 C 22,5 C 61 % 1018,6 hPa 0,0 l/m 14,1 km/h (3 Bft) N-NO22.5 15 4 min 87,5 klux 599 W/m
06.06.2016 12:29 25,6 C 45,8 C 22,6 C 61 % 1018,6 hPa 0,0 l/m 7,8 km/h (2 Bft) N45 10 5 min 87,1 klux 596 W/m
06.06.2016 12:34 25,6 C 46,0 C 22,8 C 60 % 1018,6 hPa 0,0 l/m 15,8 km/h (3 Bft) N22.5 5 5 min 87,9 klux 601 W/m
06.06.2016 12:40 25,8 C 45,5 C 22,7 C 60 % 1018,6 hPa 0,0 l/m 13,1 km/h (3 Bft) N22.5 360 6 min 87,6 klux 599 W/m
06.06.2016 12:45 25,8 C 46,7 C 22,8 C 60 % 1018,6 hPa 0,0 l/m 8,5 km/h (2 Bft) N45 355 5 min 88,3 klux 604 W/m
06.06.2016 12:50 25,9 C 46,0 C 22,8 C 61 % 1018,6 hPa 0,0 l/m 15,9 km/h (3 Bft) N22.5 350 5 min 89,1 klux 609 W/m
06.06.2016 12:54 26,1 C 46,4 C 22,7 C 60 % 1018,6 hPa 0,0 l/m 13,4 km/h (3 Bft) N22.5 360 4 min 89,1 klux 609 W/m
06.06.2016 12:59 26,2 C 44,7 C 22,6 C 59 % 1018,6 hPa 0,0 l/m 16,6 km/h (3 Bft) N22.5 10 5 min 89,8 klux 614 W/m
06.06.2016 13:05 26,2 C 45,6 C 23,0 C 60 % 1018,6 hPa 0,0 l/m 14,6 km/h (3 Bft) N45 355 6 min 89,7 klux 614 W/m
06.06.2016 13:10 26,2 C 45,6 C 23,0 C 59 % 1018,6 hPa 0,0 l/m 14,1 km/h (3 Bft) N-NW67.5 340 5 min 89,3 klux 611 W/m
06.06.2016 13:14 26,2 C 46,9 C 23,2 C 60 % 1018,6 hPa 0,0 l/m 13,9 km/h (3 Bft) N22.5 355 4 min 89,5 klux 612 W/m
06.06.2016 13:19 26,4 C 46,5 C 23,1 C 60 % 1018,6 hPa 0,0 l/m 14,8 km/h (3 Bft) N45 350 5 min 91,0 klux 622 W/m
06.06.2016 13:25 26,6 C 46,8 C 23,0 C 59 % 1018,6 hPa 0,0 l/m 16,6 km/h (3 Bft) N67.5 10 6 min 90,8 klux 621 W/m
06.06.2016 13:30 26,6 C 46,8 C 23,2 C 60 % 1018,6 hPa 0,0 l/m 15,1 km/h (3 Bft) N-NO45 15 5 min 91,0 klux 622 W/m
06.06.2016 13:35 26,7 C 47,7 C 23,4 C 59 % 1018,6 hPa 0,0 l/m 13,1 km/h (3 Bft) N-NW22.5 335 5 min 90,0 klux 616 W/m
06.06.2016 13:39 26,6 C 47,6 C 23,9 C 59 % 1018,6 hPa 0,0 l/m 14,7 km/h (3 Bft) N22.5 350 4 min 91,4 klux 625 W/m
06.06.2016 13:44 26,7 C 47,1 C 23,3 C 60 % 1018,6 hPa 0,0 l/m 13,5 km/h (3 Bft) N45 350 5 min 91,2 klux 624 W/m
06.06.2016 13:50 26,8 C 47,7 C 23,5 C 58 % 1018,6 hPa 0,0 l/m 13,9 km/h (3 Bft) N-NW22.5 345 6 min 91,3 klux 624 W/m
06.06.2016 13:55 26,7 C 48,1 C 23,6 C 59 % 1018,6 hPa 0,0 l/m 14,4 km/h (3 Bft) N45 5 5 min 91,6 klux 627 W/m
06.06.2016 14:00 26,9 C 48,2 C 24,0 C 57 % 1018,6 hPa 0,0 l/m 15,8 km/h (3 Bft) N67.5 360 5 min 92,7 klux 634 W/m
06.06.2016 14:04 26,8 C 47,8 C 24,0 C 58 % 1017,6 hPa 0,0 l/m 12,3 km/h (2 Bft) NW45 320 4 min 93,6 klux 640 W/m
06.06.2016 14:10 27,2 C 47,7 C 23,6 C 58 % 1017,6 hPa 0,0 l/m 14,2 km/h (3 Bft) N67.5 350 6 min 93,8 klux 642 W/m
06.06.2016 14:15 27,2 C 47,1 C 24,1 C 56 % 1017,6 hPa 0,0 l/m 18,0 km/h (3 Bft) N-NW22.5 340 5 min 94,5 klux 646 W/m
06.06.2016 14:20 27,4 C 49,0 C 23,9 C 56 % 1017,6 hPa 0,0 l/m 16,0 km/h (3 Bft) N67.5 355 5 min 96,8 klux 662 W/m
06.06.2016 14:24 27,7 C 49,3 C 23,8 C 56 % 1017,6 hPa 0,0 l/m 16,0 km/h (3 Bft) N45 5 4 min 98,4 klux 673 W/m
06.06.2016 14:29 27,6 C 48,6 C 24,3 C 56 % 1017,6 hPa 0,0 l/m 16,0 km/h (3 Bft) N45 5 5 min 101 klux 691 W/m
06.06.2016 14:35 28,0 C 49,0 C 24,0 C 53 % 1017,6 hPa 0,0 l/m 17,1 km/h (3 Bft) N-NO45 15 6 min 101 klux 691 W/m
06.06.2016 14:40 27,6 C 48,3 C 24,6 C 53 % 1017,6 hPa 0,0 l/m 14,3 km/h (3 Bft) N-NW45 345 5 min 81,8 klux 560 W/m
06.06.2016 14:45 27,6 C 47,3 C 24,5 C 55 % 1017,6 hPa 0,0 l/m 8,9 km/h (2 Bft) N-NW45 345 5 min 90,0 klux 616 W/m
06.06.2016 14:49 28,0 C 47,9 C 24,0 C 54 % 1017,6 hPa 0,0 l/m 15,0 km/h (3 Bft) N-NO45 15 4 min 87,2 klux 596 W/m
06.06.2016 14:54 28,2 C 48,4 C 24,3 C 53 % 1018,6 hPa 0,0 l/m 13,0 km/h (3 Bft) N-NO67.5 15 5 min 80,6 klux 551 W/m
06.06.2016 15:00 28,2 C 48,4 C 25,1 C 53 % 1018,6 hPa 0,0 l/m 11,8 km/h (2 Bft) N45 5 6 min 92,6 klux 633 W/m
06.06.2016 15:05 28,0 C 47,7 C 24,5 C 51 % 1018,6 hPa 0,0 l/m 17,1 km/h (3 Bft) N-NW45 345 0 min 49,2 klux 337 W/m
06.06.2016 15:09 28,0 C 45,0 C 24,2 C 52 % 1018,6 hPa 0,0 l/m 15,2 km/h (3 Bft) N67.5 10 4 min 76,1 klux 521 W/m
06.06.2016 15:14 28,1 C 43,7 C 24,1 C 52 % 1018,6 hPa 0,0 l/m 18,0 km/h (3 Bft) N-NO45 25 0 min 41,9 klux 287 W/m
06.06.2016 15:20 28,4 C 43,1 C 24,6 C 52 % 1018,6 hPa 0,0 l/m 12,1 km/h (2 Bft) NO22.5 35 0 min 41,9 klux 287 W/m
06.06.2016 15:25 28,9 C 44,4 C 24,2 C 47 % 1017,6 hPa 0,0 l/m 18,9 km/h (3 Bft) NO45 45 5 min 87,3 klux 597 W/m
06.06.2016 15:30 28,6 C 45,1 C 24,5 C 49 % 1017,6 hPa 0,0 l/m 19,6 km/h (3 Bft) NO45 45 5 min 89,2 klux 610 W/m
06.06.2016 15:34 28,9 C 48,4 C 24,7 C 51 % 1017,6 hPa 0,0 l/m 18,2 km/h (3 Bft) N22.5 5 4 min 96,8 klux 662 W/m
06.06.2016 15:39 29,0 C 47,5 C 24,5 C 49 % 1017,6 hPa 0,0 l/m 21,1 km/h (4 Bft) NO22.5 50 5 min 92,4 klux 632 W/m
06.06.2016 15:45 29,3 C 50,0 C 24,6 C 49 % 1017,6 hPa 0,0 l/m 20,8 km/h (4 Bft) O-NO67.5 60 6 min 92,3 klux 631 W/m
06.06.2016 15:50 29,5 C 47,9 C 24,4 C 48 % 1017,6 hPa 0,0 l/m 16,7 km/h (3 Bft) NO45 50 0 min 29,6 klux 202 W/m
06.06.2016 15:55 29,2 C 47,9 C 24,0 C 48 % 1017,6 hPa 0,0 l/m 19,8 km/h (3 Bft) NO22.5 40 0 min 18,5 klux 127 W/m
06.06.2016 15:59 28,1 C 36,7 C 24,2 C 51 % 1017,6 hPa 0,0 l/m 15,4 km/h (3 Bft) NO45 40 0 min 16,9 klux 116 W/m
06.06.2016 16:05 27,6 C 35,9 C 24,0 C 53 % 1017,6 hPa 0,0 l/m 11,6 km/h (2 Bft) NO45 50 0 min 17,0 klux 116 W/m
06.06.2016 16:10 27,3 C 34,0 C 23,9 C 54 % 1017,6 hPa 0,0 l/m 15,0 km/h (3 Bft) O67.5 100 0 min 16,1 klux 110 W/m
06.06.2016 16:15 27,1 C 33,1 C 23,9 C 54 % 1017,6 hPa 0,0 l/m 12,1 km/h (2 Bft) O-NO45 60 0 min 16,9 klux 116 W/m
06.06.2016 16:19 27,1 C 32,5 C 23,9 C 54 % 1017,6 hPa 0,0 l/m 11,0 km/h (2 Bft) NO22.5 55 0 min 16,9 klux 116 W/m
06.06.2016 16:24 27,0 C 31,8 C 23,9 C 54 % 1017,6 hPa 0,0 l/m 16,3 km/h (3 Bft) O-NO67.5 65 0 min 16,1 klux 110 W/m
06.06.2016 16:30 26,9 C 31,4 C 23,9 C 55 % 1017,6 hPa 0,0 l/m 9,1 km/h (2 Bft) O-NO22.5 60 0 min 15,0 klux 103 W/m
06.06.2016 16:35 26,8 C 31,2 C 23,9 C 55 % 1017,6 hPa 0,0 l/m 8,0 km/h (2 Bft) NO 45 0 min 14,2 klux 97 W/m
06.06.2016 16:40 26,7 C 31,0 C 23,9 C 56 % 1017,6 hPa 0,0 l/m 2,0 km/h (1 Bft) O22.5 95 0 min 14,2 klux 97 W/m
06.06.2016 16:44 26,6 C 30,8 C 23,8 C 57 % 1017,6 hPa 0,0 l/m 12,4 km/h (2 Bft) O22.5 85 0 min 14,3 klux 98 W/m
06.06.2016 16:49 26,1 C 30,7 C 24,3 C 58 % 1017,6 hPa 0,0 l/m 5,9 km/h (2 Bft) O-SO22.5 115 0 min 14,9 klux 102 W/m
06.06.2016 16:55 26,0 C 30,6 C 24,1 C 59 % 1017,6 hPa 0,0 l/m 0,1 km/h (0 Bft) O-SO22.5 110 0 min 15,1 klux 103 W/m
06.06.2016 17:00 26,2 C 30,6 C 23,8 C 59 % 1017,6 hPa 0,0 l/m 0,3 km/h (0 Bft) O45 100 0 min 14,9 klux 102 W/m
06.06.2016 17:04 26,1 C 30,1 C 23,9 C 58 % 1017,6 hPa 0,0 l/m 0,5 km/h (0 Bft) N22.5 10 0 min 15,0 klux 103 W/m
06.06.2016 17:09 26,1 C 29,9 C 23,7 C 59 % 1017,6 hPa 0,0 l/m 4,5 km/h (1 Bft) N-NO 30 0 min 15,6 klux 107 W/m
06.06.2016 17:15 26,1 C 29,2 C 23,7 C 58 % 1017,6 hPa 0,0 l/m 10,8 km/h (2 Bft) N-NO45 20 0 min 16,6 klux 114 W/m
06.06.2016 17:20 26,2 C 29,1 C 23,7 C 59 % 1017,6 hPa 0,0 l/m 8,3 km/h (2 Bft) N-NO22.5 15 0 min 17,7 klux 121 W/m
06.06.2016 17:25 26,1 C 29,1 C 23,7 C 58 % 1017,6 hPa 0,0 l/m 9,4 km/h (2 Bft) N-NO45 30 0 min 18,9 klux 129 W/m
06.06.2016 17:29 26,1 C 29,1 C 23,7 C 58 % 1017,6 hPa 0,0 l/m 11,6 km/h (2 Bft) N-NO22.5 15 0 min 20,1 klux 137 W/m
06.06.2016 17:34 26,1 C 29,5 C 23,7 C 57 % 1017,6 hPa 0,0 l/m 13,6 km/h (3 Bft) N-NO22.5 25 0 min 22,9 klux 157 W/m
06.06.2016 17:40 26,3 C 30,7 C 23,7 C 58 % 1017,6 hPa 0,0 l/m 9,8 km/h (2 Bft) N-NO22.5 25 0 min 24,5 klux 168 W/m
06.06.2016 17:45 26,4 C 31,3 C 23,8 C 58 % 1017,6 hPa 0,0 l/m 9,5 km/h (2 Bft) N22.5 5 0 min 41,0 klux 280 W/m
06.06.2016 17:50 26,6 C 33,6 C 24,0 C 57 % 1017,6 hPa 0,0 l/m 7,0 km/h (2 Bft) N45 360 5 min 49,6 klux 339 W/m
06.06.2016 17:54 26,9 C 34,3 C 24,0 C 56 % 1017,6 hPa 0,0 l/m 10,8 km/h (2 Bft) N-NO45 25 0 min 35,7 klux 244 W/m
06.06.2016 17:59 27,0 C 34,2 C 24,1 C 56 % 1017,6 hPa 0,0 l/m 13,0 km/h (3 Bft) N-NO45 15 0 min 35,6 klux 244 W/m
06.06.2016 18:05 26,9 C 33,4 C 23,9 C 56 % 1017,6 hPa 0,0 l/m 10,4 km/h (2 Bft) N-NO45 20 0 min 31,4 klux 215 W/m
06.06.2016 18:10 26,7 C 31,7 C 23,9 C 56 % 1017,6 hPa 0,0 l/m 11,3 km/h (2 Bft) N22.5 10 0 min 16,6 klux 114 W/m
06.06.2016 18:14 26,4 C 29,9 C 24,0 C 57 % 1017,6 hPa 0,0 l/m 13,0 km/h (3 Bft) N-NO22.5 25 0 min 13,8 klux 94 W/m
06.06.2016 18:19 26,4 C 29,2 C 23,7 C 56 % 1017,6 hPa 0,0 l/m 17,0 km/h (3 Bft) NO45 35 0 min 12,7 klux 87 W/m
06.06.2016 18:25 26,2 C 28,5 C 23,7 C 56 % 1017,6 hPa 0,0 l/m 13,1 km/h (3 Bft) NO22.5 40 0 min 12,5 klux 86 W/m
06.06.2016 18:30 26,2 C 28,0 C 23,7 C 57 % 1017,6 hPa 0,0 l/m 11,6 km/h (2 Bft) NO22.5 45 0 min 12,5 klux 86 W/m
06.06.2016 18:35 26,0 C 27,9 C 23,7 C 57 % 1017,6 hPa 0,0 l/m 9,5 km/h (2 Bft) NO45 35 0 min 13,3 klux 91 W/m
06.06.2016 18:39 25,9 C 27,7 C 23,7 C 55 % 1017,6 hPa 0,0 l/m 13,7 km/h (3 Bft) NO45 35 0 min 15,0 klux 103 W/m
06.06.2016 18:44 25,9 C 27,8 C 23,9 C 58 % 1017,6 hPa 0,0 l/m 12,2 km/h (2 Bft) N-NO45 30 0 min 18,1 klux 124 W/m
06.06.2016 18:50 25,7 C 28,1 C 23,9 C 58 % 1017,6 hPa 0,0 l/m 6,6 km/h (2 Bft) N22.5 5 0 min 18,1 klux 124 W/m
06.06.2016 18:55 25,8 C 29,1 C 23,7 C 59 % 1017,6 hPa 0,0 l/m 5,9 km/h (2 Bft) N22.5 10 0 min 25,4 klux 174 W/m
06.06.2016 19:00 25,8 C 29,6 C 23,7 C 59 % 1017,6 hPa 0,0 l/m 0,7 km/h (0 Bft) N 5 0 min 23,1 klux 158 W/m
06.06.2016 19:05 25,8 C 29,2 C 23,8 C 59 % 1017,6 hPa 0,0 l/m 7,2 km/h (2 Bft) N22.5 10 0 min 15,1 klux 103 W/m
06.06.2016 19:10 25,8 C 29,0 C 23,8 C 59 % 1017,6 hPa 0,0 l/m 8,5 km/h (2 Bft) N-NO22.5 15 0 min 13,8 klux 94 W/m
06.06.2016 19:15 25,6 C 28,3 C 23,7 C 59 % 1017,6 hPa 0,0 l/m 8,5 km/h (2 Bft) N22.5 5 0 min 12,7 klux 87 W/m
06.06.2016 19:20 25,4 C 27,6 C 23,6 C 58 % 1017,6 hPa 0,0 l/m 5,9 km/h (2 Bft) N22.5 10 0 min 11,0 klux 75 W/m
06.06.2016 19:25 25,4 C 27,6 C 23,6 C 59 % 1017,6 hPa 0,0 l/m 6,7 km/h (2 Bft) N22.5 10 0 min 10,4 klux 71 W/m
06.06.2016 19:30 25,4 C 27,0 C 23,6 C 61 % 1017,6 hPa 0,0 l/m 6,5 km/h (2 Bft) N-NO 20 0 min 9,5 klux 65 W/m
06.06.2016 19:35 25,2 C 26,4 C 23,5 C 60 % 1017,6 hPa 0,0 l/m 7,7 km/h (2 Bft) N-NO22.5 15 0 min 8,64 klux 59 W/m
06.06.2016 19:40 25,2 C 26,1 C 23,5 C 60 % 1017,6 hPa 0,0 l/m 9,3 km/h (2 Bft) N-NO22.5 15 0 min 7,81 klux 53 W/m
06.06.2016 19:45 25,1 C 25,7 C 23,6 C 59 % 1017,6 hPa 0,0 l/m 7,9 km/h (2 Bft) N-NO 15 0 min 7,40 klux 51 W/m
06.06.2016 19:50 24,8 C 25,4 C 23,5 C 61 % 1017,6 hPa 0,0 l/m 4,6 km/h (1 Bft) N22.5 5 0 min 6,69 klux 46 W/m
06.06.2016 19:55 24,6 C 24,9 C 23,4 C 61 % 1017,6 hPa 0,0 l/m 4,8 km/h (1 Bft) N22.5 5 0 min 6,05 klux 41 W/m
06.06.2016 20:00 24,6 C 24,8 C 23,4 C 61 % 1017,6 hPa 0,0 l/m 5,9 km/h (2 Bft) N22.5 5 0 min 5,19 klux 35 W/m
06.06.2016 20:05 24,5 C 24,4 C 23,4 C 61 % 1017,6 hPa 0,0 l/m 7,2 km/h (2 Bft) N-NO67.5 20 0 min 4,92 klux 34 W/m
06.06.2016 20:10 24,4 C 24,1 C 23,4 C 61 % 1017,6 hPa 0,0 l/m 6,1 km/h (2 Bft) N22.5 10 0 min 4,31 klux 29 W/m
06.06.2016 20:15 24,4 C 23,9 C 23,2 C 62 % 1017,6 hPa 0,0 l/m 8,9 km/h (2 Bft) N22.5 5 0 min 4,13 klux 28 W/m
06.06.2016 20:20 24,2 C 23,7 C 23,2 C 60 % 1017,6 hPa 0,0 l/m 8,9 km/h (2 Bft) N22.5 5 0 min 3,81 klux 26 W/m
06.06.2016 20:25 24,2 C 23,6 C 23,2 C 59 % 1017,6 hPa 0,0 l/m 9,1 km/h (2 Bft) N-NO45 30 0 min 3,58 klux 24 W/m
06.06.2016 20:30 24,3 C 23,5 C 23,2 C 59 % 1017,6 hPa 0,0 l/m 8,2 km/h (2 Bft) N-NO22.5 30 0 min 3,58 klux 24 W/m
06.06.2016 20:34 24,3 C 23,3 C 23,2 C 58 % 1017,6 hPa 0,0 l/m 7,9 km/h (2 Bft) N-NO22.5 25 0 min 3,31 klux 23 W/m
06.06.2016 20:39 24,3 C 23,2 C 23,2 C 58 % 1017,6 hPa 0,0 l/m 10,0 km/h (2 Bft) N-NO22.5 20 0 min 3,10 klux 21 W/m
06.06.2016 20:44 24,4 C 23,1 C 23,1 C 58 % 1017,6 hPa 0,0 l/m 9,2 km/h (2 Bft) N-NO22.5 15 0 min 2,99 klux 20 W/m
06.06.2016 20:49 24,2 C 23,0 C 23,2 C 59 % 1017,6 hPa 0,0 l/m 9,6 km/h (2 Bft) N-NO22.5 30 0 min 2,69 klux 18 W/m
06.06.2016 20:54 24,2 C 23,0 C 23,1 C 59 % 1017,6 hPa 0,0 l/m 7,9 km/h (2 Bft) NO22.5 35 0 min 2,35 klux 16 W/m
06.06.2016 20:59 23,8 C 22,5 C 23,1 C 61 % 1017,6 hPa 0,0 l/m 7,0 km/h (2 Bft) N-NO 30 0 min 2,23 klux 15 W/m
06.06.2016 21:04 23,6 C 22,3 C 23,1 C 62 % 1018,6 hPa 0,0 l/m 6,5 km/h (2 Bft) N-NO22.5 15 0 min 1,95 klux 13 W/m
06.06.2016 21:10 23,4 C 22,0 C 23,0 C 63 % 1018,6 hPa 0,0 l/m 5,6 km/h (2 Bft) N 10 0 min 1,71 klux 12 W/m
06.06.2016 21:15 23,2 C 21,6 C 23,0 C 63 % 1018,6 hPa 0,0 l/m 5,9 km/h (2 Bft) N 10 0 min 1,47 klux 10 W/m
06.06.2016 21:20 23,1 C 21,4 C 22,9 C 63 % 1018,6 hPa 0,0 l/m 3,0 km/h (1 Bft) N 10 0 min 1,26 klux 9 W/m
06.06.2016 21:25 23,0 C 21,4 C 22,9 C 64 % 1018,6 hPa 0,0 l/m 8,1 km/h (2 Bft) N-NO22.5 25 0 min 1,18 klux 8 W/m
06.06.2016 21:30 23,1 C 21,3 C 23,1 C 63 % 1018,6 hPa 0,0 l/m 8,1 km/h (2 Bft) N-NO22.5 25 0 min 1,07 klux 7 W/m
06.06.2016 21:35 23,3 C 21,2 C 22,9 C 63 % 1018,6 hPa 0,0 l/m 9,1 km/h (2 Bft) N-NO22.5 25 0 min 654 lux 4 W/m
06.06.2016 21:40 23,4 C 21,1 C 22,9 C 62 % 1018,6 hPa 0,0 l/m 10,0 km/h (2 Bft) N-NO22.5 30 0 min 462 lux 0 W/m
06.06.2016 21:45 23,5 C 21,0 C 22,8 C 62 % 1018,6 hPa 0,0 l/m 9,1 km/h (2 Bft) N-NO 25 0 min 393 lux 0 W/m
06.06.2016 21:50 23,3 C 20,5 C 22,9 C 63 % 1018,6 hPa 0,0 l/m 5,0 km/h (1 Bft) N22.5 10 0 min 239 lux 0 W/m
06.06.2016 21:55 22,9 C 20,3 C 22,8 C 63 % 1018,6 hPa 0,0 l/m 0,7 km/h (0 Bft) N-NO 25 0 min 163 lux 0 W/m
06.06.2016 22:00 22,6 C 20,0 C 22,8 C 64 % 1018,6 hPa 0,0 l/m 4,7 km/h (1 Bft) N-NO 30 0 min 103 lux 0 W/m
06.06.2016 22:05 22,4 C 19,9 C 22,7 C 65 % 1018,6 hPa 0,0 l/m 4,6 km/h (1 Bft) N-NO 30 0 min 79 lux 0 W/m
06.06.2016 22:10 22,3 C 19,9 C 22,7 C 65 % 1018,6 hPa 0,0 l/m 1,6 km/h (1 Bft) N-NO 30 0 min 79 lux 0 W/m
06.06.2016 22:15 22,2 C 19,9 C 22,7 C 65 % 1018,6 hPa 0,0 l/m 8,3 km/h (2 Bft) N-NO22.5 30 0 min 17 lux 0 W/m
06.06.2016 22:20 22,2 C 19,9 C 22,7 C 65 % 1018,6 hPa 0,0 l/m 7,3 km/h (2 Bft) N-NO 25 0 min 12 lux 0 W/m
06.06.2016 22:25 22,2 C 19,9 C 22,7 C 66 % 1018,6 hPa 0,0 l/m 6,0 km/h (2 Bft) N-NO 25 0 min 5 lux 0 W/m
06.06.2016 22:30 22,1 C 19,8 C 22,7 C 66 % 1018,6 hPa 0,0 l/m 7,6 km/h (2 Bft) N-NO 25 0 min 5 lux 0 W/m
06.06.2016 22:35 21,8 C 19,8 C 22,6 C 67 % 1018,7 hPa 0,0 l/m 5,8 km/h (2 Bft) N-NO 25 0 min 1 lux 0 W/m
06.06.2016 22:40 21,7 C 19,5 C 22,6 C 68 % 1018,7 hPa 0,0 l/m 6,2 km/h (2 Bft) N-NO 20 0 min 1 lux 0 W/m
06.06.2016 22:45 21,4 C 19,3 C 22,5 C 69 % 1018,7 hPa 0,0 l/m 7,6 km/h (2 Bft) N-NO 15 0 min 0 lux 0 W/m
06.06.2016 22:50 21,1 C 19,0 C 22,3 C 70 % 1018,7 hPa 0,0 l/m 5,6 km/h (2 Bft) N-NO 15 0 min 0 lux 0 W/m
06.06.2016 22:55 20,9 C 18,8 C 22,2 C 71 % 1018,7 hPa 0,0 l/m 7,1 km/h (2 Bft) N-NO 15 0 min 0 lux 0 W/m
06.06.2016 23:00 20,8 C 18,9 C 22,2 C 70 % 1018,7 hPa 0,0 l/m 1,6 km/h (1 Bft) N-NO 15 0 min 0 lux 0 W/m
06.06.2016 23:05 20,9 C 19,0 C 22,3 C 71 % 1018,7 hPa 0,0 l/m 8,3 km/h (2 Bft) N-NO22.5 25 0 min 0 lux 0 W/m
06.06.2016 23:10 21,0 C 19,1 C 22,3 C 71 % 1018,7 hPa 0,0 l/m 6,6 km/h (2 Bft) N-NO 15 0 min 0 lux 0 W/m
06.06.2016 23:15 21,0 C 18,9 C 22,2 C 71 % 1018,7 hPa 0,0 l/m 6,7 km/h (2 Bft) N-NO 20 0 min 0 lux 0 W/m
06.06.2016 23:20 20,9 C 18,7 C 22,2 C 71 % 1018,7 hPa 0,0 l/m 5,9 km/h (2 Bft) N-NO 20 0 min 0 lux 0 W/m
06.06.2016 23:25 20,6 C 18,4 C 22,1 C 72 % 1018,7 hPa 0,0 l/m 4,0 km/h (1 Bft) N 10 0 min 0 lux 0 W/m
06.06.2016 23:30 20,5 C 18,3 C 22,1 C 72 % 1018,7 hPa 0,0 l/m 0,9 km/h (0 Bft) N 10 0 min 0 lux 0 W/m
06.06.2016 23:35 20,4 C 18,3 C 22,1 C 72 % 1018,7 hPa 0,0 l/m 3,9 km/h (1 Bft) N 10 0 min 0 lux 0 W/m
06.06.2016 23:40 20,3 C 18,2 C 22,1 C 72 % 1018,7 hPa 0,0 l/m 1,2 km/h (1 Bft) N 10 0 min 0 lux 0 W/m
06.06.2016 23:45 20,2 C 18,2 C 22,0 C 72 % 1018,7 hPa 0,0 l/m 5,3 km/h (1 Bft) N-NO 15 0 min 0 lux 0 W/m
06.06.2016 23:50 20,3 C 18,3 C 22,1 C 73 % 1018,7 hPa 0,0 l/m 3,8 km/h (1 Bft) N-NO 15 0 min 0 lux 0 W/m
06.06.2016 23:55 20,3 C 18,2 C 22,0 C 73 % 1018,7 hPa 0,0 l/m 4,1 km/h (1 Bft) N-NO 15 0 min 0 lux 0 W/m
_ Min-Zeit 05:55 04:59 06:40 15:25 15:50 - 03:20 - - - - -
Minimum _ 16,1 C 15,4 C 20,2 C 47 % 1017,6 hPa - 0,0 km/h (0 Bft) - - - - -
_ Max-Zeit 15:50 15:45 15:00 06:20 06:50 00:04 15:39 - - 07:55 14:29 14:29
Maximum _ 29,5 C 50,0 C 25,1 C 84 % 1018,7 hPa 0,0 l/m 21,1 km/h
NO (4 Bft)
- - 6 min 101 klux 691 W/m
Durchschnitt _ 22,3 C 28,0 C 22,1 C 67 % 1018,1 hPa #0,0 l/m 8,8 km/h (2 Bft) N - #7:40 h 28,1 klux 284 W/m